KLM72R EGBB-EHAM

Flight info

Callsign KLM72R
Flight time 0h 53m
Altitude 33000
Route UNGAP P155 SIVDA P137 REDFA
Aircraft B739/M-SDE2E3FGIJ1RWY/LB1

Departure

Time 2026-04-29 02:04
Airport Birmingham Airport (EGBB)

Arrival

Time 2026-04-29 02:57
Airport Amsterdam Airport Schiphol (EHAM)
Time Latitude Longitude Altitude Speed Heading
2026-04-29 01:21 52.45395 -1.73490 330 ft 0 kts 146°
2026-04-29 01:54 52.45397 -1.73492 329 ft 3 kts 146°
2026-04-29 01:54 52.45419 -1.73516 325 ft 4 kts 146°
2026-04-29 01:54 52.45441 -1.73541 324 ft 4 kts 148°
2026-04-29 01:55 52.45465 -1.73558 325 ft 4 kts 177°
2026-04-29 01:55 52.45488 -1.73549 327 ft 4 kts 223°
2026-04-29 01:55 52.45494 -1.73538 328 ft 0 kts 236°
2026-04-29 01:58 52.45489 -1.73551 327 ft 4 kts 236°
2026-04-29 01:59 52.45449 -1.73648 329 ft 14 kts 236°
2026-04-29 01:59 52.45395 -1.73778 325 ft 14 kts 236°
2026-04-29 01:59 52.45343 -1.73904 327 ft 13 kts 236°
2026-04-29 01:59 52.45270 -1.73960 329 ft 13 kts 160°
2026-04-29 02:00 52.45197 -1.73882 329 ft 12 kts 146°
2026-04-29 02:00 52.45126 -1.73803 327 ft 13 kts 145°
2026-04-29 02:00 52.45026 -1.73734 328 ft 18 kts 150°
2026-04-29 02:00 52.44921 -1.73642 331 ft 17 kts 181°
2026-04-29 02:01 52.44808 -1.73692 333 ft 17 kts 196°
2026-04-29 02:01 52.44700 -1.73709 331 ft 16 kts 154°
2026-04-29 02:01 52.44609 -1.73612 334 ft 15 kts 145°
2026-04-29 02:01 52.44524 -1.73517 334 ft 15 kts 146°
2026-04-29 02:02 52.44441 -1.73425 334 ft 14 kts 149°
2026-04-29 02:02 52.44361 -1.73461 333 ft 13 kts 234°
2026-04-29 02:02 52.44322 -1.73590 336 ft 13 kts 286°
2026-04-29 02:02 52.44386 -1.73689 335 ft 13 kts 326°
2026-04-29 02:03 52.44474 -1.73787 336 ft 27 kts 326°
2026-04-29 02:03 52.44839 -1.74182 326 ft 97 kts 325°
2026-04-29 02:03 52.45556 -1.74985 324 ft 150 kts 328°
2026-04-29 02:03 52.46459 -1.75977 793 ft 152 kts 330°
2026-04-29 02:04 52.47365 -1.76959 1399 ft 162 kts 334°
2026-04-29 02:04 52.48319 -1.78031 1970 ft 170 kts 335°
2026-04-29 02:04 52.49347 -1.79175 2386 ft 191 kts 339°
2026-04-29 02:04 52.50630 -1.79946 2634 ft 204 kts
2026-04-29 02:05 52.52038 -1.79615 2953 ft 207 kts 31°
2026-04-29 02:05 52.53196 -1.78256 3519 ft 206 kts 54°
2026-04-29 02:05 52.53871 -1.76214 4251 ft 205 kts 78°
2026-04-29 02:05 52.53937 -1.73893 5090 ft 206 kts 98°
2026-04-29 02:06 52.53639 -1.71558 5738 ft 212 kts 102°
2026-04-29 02:06 52.53303 -1.69206 5951 ft 212 kts 102°
2026-04-29 02:06 52.52718 -1.66968 5996 ft 217 kts 122°
2026-04-29 02:06 52.51677 -1.65007 6019 ft 244 kts 131°
2026-04-29 02:07 52.50432 -1.63018 6017 ft 253 kts 132°
2026-04-29 02:07 52.49161 -1.61006 5970 ft 254 kts 132°
2026-04-29 02:07 52.47887 -1.58969 6058 ft 252 kts 132°
2026-04-29 02:07 52.46641 -1.56962 6395 ft 257 kts 132°
2026-04-29 02:08 52.45364 -1.54899 6362 ft 257 kts 132°
2026-04-29 02:08 52.44082 -1.52823 6363 ft 254 kts 131°
2026-04-29 02:08 52.42848 -1.50820 6372 ft 253 kts 131°
2026-04-29 02:08 52.41585 -1.48768 6378 ft 253 kts 131°
2026-04-29 02:09 52.40350 -1.46766 6367 ft 253 kts 131°
2026-04-29 02:09 52.39099 -1.44741 6375 ft 253 kts 131°
2026-04-29 02:09 52.37846 -1.42714 6371 ft 253 kts 131°
2026-04-29 02:09 52.36618 -1.40653 6364 ft 252 kts 124°
2026-04-29 02:10 52.35919 -1.38092 6407 ft 247 kts 102°
2026-04-29 02:10 52.35731 -1.35280 6833 ft 253 kts 91°
2026-04-29 02:10 52.35733 -1.32398 7669 ft 253 kts 89°
2026-04-29 02:10 52.35763 -1.29519 8495 ft 255 kts 89°
2026-04-29 02:11 52.35794 -1.26596 9259 ft 259 kts 89°
2026-04-29 02:11 52.35821 -1.23627 10024 ft 263 kts 89°
2026-04-29 02:11 52.35841 -1.20614 10686 ft 270 kts 89°
2026-04-29 02:11 52.35859 -1.17404 10869 ft 294 kts 89°
2026-04-29 02:12 52.35873 -1.13932 11045 ft 316 kts 90°
2026-04-29 02:12 52.35885 -1.10232 11306 ft 333 kts 90°
2026-04-29 02:12 52.35894 -1.06394 11869 ft 339 kts 90°
2026-04-29 02:12 52.35901 -1.02524 12585 ft 342 kts 90°
2026-04-29 02:13 52.35906 -0.98622 13319 ft 344 kts 90°
2026-04-29 02:13 52.35910 -0.94684 14038 ft 349 kts 90°
2026-04-29 02:13 52.35912 -0.90696 14682 ft 352 kts 90°
2026-04-29 02:13 52.35912 -0.86678 15401 ft 354 kts 90°
2026-04-29 02:14 52.35911 -0.82642 16137 ft 355 kts 90°
2026-04-29 02:14 52.35910 -0.78642 16841 ft 358 kts 90°
2026-04-29 02:14 52.35907 -0.74562 17533 ft 360 kts 90°
2026-04-29 02:14 52.35902 -0.70448 18223 ft 363 kts 90°
2026-04-29 02:15 52.35897 -0.66312 18857 ft 366 kts 90°
2026-04-29 02:15 52.35893 -0.62136 19450 ft 368 kts 90°
2026-04-29 02:15 52.35889 -0.57955 20074 ft 369 kts 89°
2026-04-29 02:15 52.35884 -0.53732 20683 ft 371 kts 89°
2026-04-29 02:16 52.35877 -0.49500 21280 ft 373 kts 89°
2026-04-29 02:16 52.35868 -0.45256 21867 ft 375 kts 89°
2026-04-29 02:16 52.35858 -0.40966 22445 ft 377 kts 89°
2026-04-29 02:16 52.35846 -0.36660 23018 ft 380 kts 89°
2026-04-29 02:17 52.35834 -0.32336 23578 ft 382 kts 89°
2026-04-29 02:17 52.35819 -0.27979 24100 ft 384 kts 89°
2026-04-29 02:17 52.35802 -0.23603 24560 ft 386 kts 90°
2026-04-29 02:17 52.35777 -0.19190 25019 ft 388 kts 90°
2026-04-29 02:18 52.35744 -0.14779 25473 ft 390 kts 90°
2026-04-29 02:18 52.35709 -0.10334 25914 ft 392 kts 90°
2026-04-29 02:18 52.35686 -0.07368 26213 ft 393 kts 90°
2026-04-29 02:18 52.35650 -0.02882 26637 ft 395 kts 90°
2026-04-29 02:19 52.35611 0.01612 27033 ft 398 kts 90°
2026-04-29 02:19 52.35412 0.06148 27413 ft 401 kts 95°
2026-04-29 02:19 52.35026 0.10678 27816 ft 404 kts 96°
2026-04-29 02:19 52.34604 0.15228 28222 ft 406 kts 97°
2026-04-29 02:20 52.34172 0.19799 28662 ft 406 kts 96°
2026-04-29 02:20 52.33745 0.24345 29249 ft 404 kts 96°
2026-04-29 02:20 52.33326 0.28872 29917 ft 400 kts 96°
2026-04-29 02:20 52.32915 0.33345 30506 ft 397 kts 96°
2026-04-29 02:21 52.32509 0.37798 30921 ft 397 kts 96°
2026-04-29 02:21 52.32102 0.42286 31278 ft 398 kts 96°
2026-04-29 02:21 52.31696 0.46750 31665 ft 398 kts 96°
2026-04-29 02:21 52.31289 0.51216 32094 ft 397 kts 96°
2026-04-29 02:22 52.30879 0.55687 32469 ft 397 kts 96°
2026-04-29 02:22 52.30468 0.60158 32806 ft 399 kts 96°
2026-04-29 02:22 52.30055 0.64634 33138 ft 399 kts 96°
2026-04-29 02:22 52.29637 0.69142 33340 ft 402 kts 96°
2026-04-29 02:23 52.28792 0.78202 33335 ft 403 kts 96°
2026-04-29 02:23 52.27945 0.87181 33358 ft 398 kts 97°
2026-04-29 02:24 52.27096 0.96112 33328 ft 398 kts 97°
2026-04-29 02:25 52.25811 1.09514 33327 ft 399 kts 97°
2026-04-29 02:25 52.24944 1.18457 33325 ft 400 kts 97°
2026-04-29 02:26 52.24067 1.27422 33327 ft 401 kts 97°
2026-04-29 02:26 52.23181 1.36416 33329 ft 401 kts 97°
2026-04-29 02:27 52.22287 1.45412 33330 ft 402 kts 97°
2026-04-29 02:27 52.21385 1.54421 33323 ft 403 kts 97°
2026-04-29 02:28 52.20480 1.63386 33332 ft 404 kts 97°
2026-04-29 02:28 52.19560 1.72421 33330 ft 404 kts 97°
2026-04-29 02:28 52.19095 1.76975 32823 ft 413 kts 97°
2026-04-29 02:29 52.18622 1.81585 32153 ft 413 kts 97°
2026-04-29 02:29 52.18148 1.86165 31628 ft 405 kts 97°
2026-04-29 02:29 52.17677 1.90702 31038 ft 399 kts 97°
2026-04-29 02:29 52.17222 1.95062 30461 ft 393 kts 97°
2026-04-29 02:30 52.16767 1.99422 29838 ft 387 kts 97°
2026-04-29 02:30 52.16317 2.03708 29268 ft 380 kts 97°
2026-04-29 02:30 52.15875 2.07912 28717 ft 374 kts 97°
2026-04-29 02:30 52.15438 2.12059 28173 ft 369 kts 97°
2026-04-29 02:31 52.15007 2.16139 27633 ft 363 kts 97°
2026-04-29 02:31 52.14579 2.20170 27088 ft 359 kts 97°
2026-04-29 02:31 52.14154 2.24158 26570 ft 355 kts 97°
2026-04-29 02:31 52.13733 2.28105 26035 ft 352 kts 97°
2026-04-29 02:32 52.13315 2.32013 25528 ft 349 kts 97°
2026-04-29 02:32 52.12900 2.35881 25022 ft 346 kts 97°
2026-04-29 02:32 52.12485 2.39723 24526 ft 344 kts 97°
2026-04-29 02:32 52.12072 2.43535 24025 ft 342 kts 97°
2026-04-29 02:33 52.11918 2.47361 23423 ft 338 kts 82°
2026-04-29 02:33 52.12430 2.51035 23093 ft 330 kts 70°
2026-04-29 02:33 52.13425 2.54391 22786 ft 332 kts 62°
2026-04-29 02:33 52.14609 2.57699 22485 ft 343 kts 61°
2026-04-29 02:34 52.15854 2.61069 22158 ft 350 kts 60°
2026-04-29 02:34 52.17114 2.64469 21851 ft 351 kts 60°
2026-04-29 02:34 52.18367 2.67869 21531 ft 349 kts 60°
2026-04-29 02:34 52.19605 2.71257 21230 ft 348 kts 61°
2026-04-29 02:35 52.20834 2.74641 20912 ft 346 kts 61°
2026-04-29 02:35 52.22055 2.78022 20611 ft 345 kts 61°
2026-04-29 02:35 52.23270 2.81399 20302 ft 344 kts 61°
2026-04-29 02:35 52.24479 2.84766 20002 ft 344 kts 61°
2026-04-29 02:36 52.25682 2.88123 19691 ft 343 kts 61°
2026-04-29 02:36 52.26884 2.91484 19386 ft 342 kts 60°
2026-04-29 02:36 52.28076 2.94824 19103 ft 340 kts 60°
2026-04-29 02:36 52.29265 2.98156 18803 ft 339 kts 60°
2026-04-29 02:37 52.30450 3.01484 18488 ft 339 kts 60°
2026-04-29 02:37 52.31633 3.04808 18149 ft 337 kts 60°
2026-04-29 02:37 52.32809 3.08120 17831 ft 336 kts 60°
2026-04-29 02:37 52.33973 3.11399 17532 ft 334 kts 60°
2026-04-29 02:38 52.35134 3.14675 17222 ft 332 kts 60°
2026-04-29 02:38 52.36287 3.17935 16938 ft 330 kts 60°
2026-04-29 02:38 52.37433 3.21178 16646 ft 329 kts 60°
2026-04-29 02:38 52.38575 3.24415 16358 ft 328 kts 60°
2026-04-29 02:39 52.39711 3.27637 16060 ft 326 kts 60°
2026-04-29 02:39 52.40845 3.30856 15774 ft 326 kts 60°
2026-04-29 02:39 52.41976 3.34071 15487 ft 326 kts 60°
2026-04-29 02:39 52.43103 3.37282 15209 ft 325 kts 60°
2026-04-29 02:40 52.44228 3.40490 14916 ft 325 kts 60°
2026-04-29 02:40 52.45142 3.43838 14621 ft 324 kts 73°
2026-04-29 02:40 52.45673 3.47426 14345 ft 321 kts 76°
2026-04-29 02:40 52.46155 3.50997 14052 ft 321 kts 76°
2026-04-29 02:41 52.46636 3.54564 13739 ft 319 kts 76°
2026-04-29 02:41 52.47121 3.58105 13435 ft 318 kts 76°
2026-04-29 02:41 52.47613 3.61644 13151 ft 317 kts 76°
2026-04-29 02:41 52.48106 3.65154 12871 ft 316 kts 75°
2026-04-29 02:42 52.48601 3.68657 12584 ft 315 kts 76°
2026-04-29 02:42 52.49095 3.72152 12308 ft 314 kts 76°
2026-04-29 02:42 52.49586 3.75628 12030 ft 312 kts 76°
2026-04-29 02:42 52.50069 3.79045 11757 ft 310 kts 76°
2026-04-29 02:43 52.50561 3.82535 11482 ft 309 kts 76°
2026-04-29 02:43 52.51042 3.85947 11215 ft 305 kts 76°
2026-04-29 02:43 52.51511 3.89291 10938 ft 297 kts 76°
2026-04-29 02:43 52.51963 3.92520 10688 ft 290 kts 76°
2026-04-29 02:44 52.52322 3.95718 10401 ft 279 kts 87°
2026-04-29 02:44 52.52063 3.98784 10356 ft 264 kts 103°
2026-04-29 02:44 52.51461 4.01659 9958 ft 267 kts 109°
2026-04-29 02:44 52.50764 4.04444 9702 ft 262 kts 110°
2026-04-29 02:45 52.50064 4.07189 9439 ft 259 kts 109°
2026-04-29 02:45 52.49378 4.09907 9192 ft 257 kts 109°
2026-04-29 02:45 52.48699 4.12620 8961 ft 256 kts 109°
2026-04-29 02:45 52.48027 4.15326 8719 ft 256 kts 109°
2026-04-29 02:46 52.47360 4.18027 8484 ft 255 kts 109°
2026-04-29 02:46 52.46697 4.20717 8249 ft 254 kts 109°
2026-04-29 02:46 52.46039 4.23394 8021 ft 253 kts 109°
2026-04-29 02:46 52.45381 4.26071 7788 ft 253 kts 109°
2026-04-29 02:47 52.44727 4.28731 7556 ft 252 kts 109°
2026-04-29 02:47 52.44071 4.31387 7336 ft 251 kts 109°
2026-04-29 02:47 52.43416 4.34042 7114 ft 250 kts 109°
2026-04-29 02:47 52.42556 4.36513 6853 ft 255 kts 131°
2026-04-29 02:48 52.41047 4.38074 6622 ft 262 kts 156°
2026-04-29 02:48 52.39229 4.38488 6366 ft 269 kts 178°
2026-04-29 02:48 52.37359 4.38262 6114 ft 269 kts 180°
2026-04-29 02:48 52.35499 4.37988 5859 ft 268 kts 180°
2026-04-29 02:49 52.33642 4.37721 5607 ft 267 kts 180°
2026-04-29 02:49 52.31791 4.37471 5358 ft 266 kts 179°
2026-04-29 02:49 52.29953 4.37231 5116 ft 264 kts 179°
2026-04-29 02:49 52.28128 4.36998 4854 ft 262 kts 179°
2026-04-29 02:50 52.26331 4.36769 4607 ft 257 kts 178°
2026-04-29 02:50 52.24614 4.37051 4346 ft 241 kts 150°
2026-04-29 02:50 52.23321 4.38578 4216 ft 222 kts 127°
2026-04-29 02:50 52.22493 4.40617 4048 ft 211 kts 113°
2026-04-29 02:51 52.21868 4.42755 3905 ft 207 kts 111°
2026-04-29 02:51 52.21266 4.44880 3733 ft 205 kts 111°
2026-04-29 02:51 52.20857 4.47070 3461 ft 206 kts 94°
2026-04-29 02:51 52.20825 4.49430 3146 ft 206 kts 91°
2026-04-29 02:52 52.20813 4.51708 2953 ft 195 kts 86°
2026-04-29 02:52 52.21208 4.53740 2765 ft 184 kts 65°
2026-04-29 02:52 52.21846 4.55477 2529 ft 173 kts 62°
2026-04-29 02:52 52.22473 4.57070 2309 ft 160 kts 63°
2026-04-29 02:53 52.23062 4.58544 2133 ft 149 kts 62°
2026-04-29 02:53 52.23620 4.59907 2004 ft 138 kts 62°
2026-04-29 02:53 52.24112 4.61163 1821 ft 124 kts 63°
2026-04-29 02:53 52.24559 4.62331 1652 ft 121 kts 64°
2026-04-29 02:54 52.24998 4.63479 1488 ft 117 kts 65°
2026-04-29 02:54 52.25424 4.64600 1314 ft 115 kts 64°
2026-04-29 02:54 52.25848 4.65707 1169 ft 117 kts 64°
2026-04-29 02:54 52.26280 4.66840 1008 ft 117 kts 64°
2026-04-29 02:55 52.26709 4.67966 835 ft 117 kts 61°
2026-04-29 02:55 52.27142 4.69097 701 ft 120 kts 61°
2026-04-29 02:55 52.27594 4.70278 537 ft 124 kts 60°
2026-04-29 02:55 52.28056 4.71475 335 ft 126 kts 59°
2026-04-29 02:56 52.28528 4.72687 172 ft 124 kts 61°
2026-04-29 02:56 52.28973 4.73877 32 ft 123 kts 60°
2026-04-29 02:56 52.29390 4.74968 -3 ft 98 kts 59°
2026-04-29 02:56 52.29688 4.75751 -5 ft 64 kts 57°
2026-04-29 02:57 52.29861 4.76200 -7 ft 30 kts 54°
2026-04-29 02:57 52.29937 4.76390 -7 ft 19 kts 54°
2026-04-29 02:57 52.30032 4.76537 -4 ft 19 kts 33°
2026-04-29 02:57 52.30139 4.76630 -3 ft 14 kts 28°
2026-04-29 02:58 52.30224 4.76705 -3 ft 14 kts 28°
2026-04-29 02:58 52.30298 4.76792 -4 ft 13 kts 52°
2026-04-29 02:58 52.30348 4.76914 -4 ft 13 kts 57°
2026-04-29 02:58 52.30394 4.77033 -4 ft 12 kts 58°
2026-04-29 02:59 52.30438 4.77152 -4 ft 12 kts 59°
2026-04-29 02:59 52.30484 4.77274 -4 ft 14 kts 58°
2026-04-29 02:59 52.30535 4.77406 -4 ft 13 kts 58°
2026-04-29 02:59 52.30598 4.77544 -3 ft 19 kts 41°
2026-04-29 03:00 52.30721 4.77594 -3 ft 14 kts
2026-04-29 03:00 52.30799 4.77592 -3 ft 11 kts 345°
2026-04-29 03:00 52.30833 4.77493 -3 ft 10 kts 277°
2026-04-29 03:00 52.30838 4.77377 -3 ft 10 kts 274°
2026-04-29 03:01 52.30824 4.77296 -3 ft 6 kts 191°
2026-04-29 03:01 52.30793 4.77293 -3 ft 0 kts 184°
2026-04-29 03:01 52.30791 4.77293 -3 ft 1 kts 184°
2026-04-29 03:01 52.30789 4.77293 -3 ft 0 kts 184°